Jackson Hole, USA 16 day weather forecast

Slopes altitude range 1925 m - 3185m

Number of lifts: 12 Pistes: 116km

In some cases the lift and piste totals shown are for the ski domain (e.g. Three Valleys) rather than individual resort (e.g. Courchevel)

Overview

The 16 day weather forecast is fully updated 4 times every day.

    • Sat 18 AUG 2018
    • Sat 18
    • 8C 11C
    • Sun 19 AUG 2018
    • Sun 19
    • 6C 9C
    • Mon 20 AUG 2018
    • Mon 20
    • 7C 10C
    • Tue 21 AUG 2018
    • Tue 21
    • 6C 8C
    • Wed 22 AUG 2018
    • Wed 22
    • 7C 10C
    • Thu 23 AUG 2018
    • Thu 23
    • 9C 12C
    • Fri 24 AUG 2018
    • Fri 24
    • 9C 12C
    • Sat 25 AUG 2018
    • Sat 25
    • 6C 9C
    • Sun 26 AUG 2018
    • Sun 26
    • 10C 13C
    • Mon 27 AUG 2018
    • Mon 27
    • 11C 12C
    • Tue 28 AUG 2018
    • Tue 28
    • 8C 21C
    • Wed 29 AUG 2018
    • Wed 29
    • 3C 17C
    • Thu 30 AUG 2018
    • Thu 30
    • 5C 20C
    • Fri 31 AUG 2018
    • Fri 31
    • 7C 24C
    • Sat 01 SEP 2018
    • Sat 01
    • 10C 27C
    • Sun 02 SEP 2018
    • Sun 02
    • 12C 29C

Date:

Time Type 0°C level Temp Chill Snow Cloud Speed Gust Dir Press
12:00 4309m 11°C 11_2 0cm 85% 2mph 3mph 1021mB
15:00 4187m 14°C 14_3 0cm 1% 3mph 6mph 1020mB
18:00 4113m 19°C 19_11 0cm 1% 11mph 17mph 1018mB
21:00 4246m 20°C 20_13 0cm 2% 13mph 15mph 1017mB
0:00 4316m 19°C 19_12 0cm 28% 12mph 17mph 1017mB
3:00 4301m 12°C 12_4 0cm 12% 4mph 6mph 1019mB
6:00 4299m 9°C 9_4 0cm 6% 4mph 5mph 1021mB
9:00 4284m 8°C 8_3 0cm 0% 3mph 4mph 1022mB
12:00 4247m 9°C 9_3 0cm 0% 3mph 4mph 1023mB
15:00 4307m 14°C 14_3 0cm 0% 3mph 4mph 1022mB
18:00 4330m 25°C 25_2 0cm 0% 2mph 3mph 1019mB
21:00 4467m 24°C 24_5 0cm 0% 5mph 6mph 1017mB
0:00 4550m 22°C 22_7 0cm 0% 7mph 8mph 1015mB
3:00 4542m 13°C 13_2 0cm 0% 2mph 3mph 1016mB
6:00 4484m 10°C 10_4 0cm 0% 4mph 5mph 1018mB
9:00 4479m 8°C 8_4 0cm 0% 4mph 5mph 1018mB
12:00 4563m 10°C 10_5 0cm 0% 5mph 6mph 1019mB
15:00 4575m 13°C 13_5 0cm 0% 5mph 8mph 1017mB
18:00 4566m 23°C 23_6 0cm 1% 6mph 10mph 1014mB
21:00 4412m 21°C 21_11 0cm 100% 11mph 14mph 1013mB
0:00 4515m 19°C 19_7 0cm 84% 7mph 13mph 1013mB
3:00 4613m 11°C 11_4 0cm 85% 4mph 5mph 1016mB
6:00 4598m 8°C 8_5 0cm 60% 5mph 6mph 1017mB
9:00 4429m 7°C 7_5 0cm 0% 5mph 5mph 1018mB
12:00 4422m 8°C 8_4 0cm 0% 4mph 5mph 1019mB
15:00 4377m 13°C 13_3 0cm 0% 3mph 5mph 1019mB
18:00 4232m 19°C 19_8 0cm 0% 8mph 13mph 1018mB
21:00 4353m 19°C 19_10 0cm 0% 10mph 14mph 1017mB
0:00 4377m 19°C 19_8 0cm 0% 8mph 9mph 1017mB
3:00 4447m 11°C 11_1 0cm 0% 1mph 2mph 1020mB
6:00 4513m 10°C 10_3 0cm 0% 3mph 3mph 1021mB
9:00 4605m 8°C 8_3 0cm 0% 3mph 4mph 1022mB
12:00 4574m 10°C 10_3 0cm 0% 3mph 4mph 1022mB
15:00 4623m 15°C 15_3 0cm 0% 3mph 5mph 1021mB
18:00 4648m 23°C 23_7 0cm 0% 7mph 12mph 1018mB
21:00 4704m 23°C 23_10 0cm 0% 10mph 13mph 1015mB
0:00 4790m 23°C 23_8 0cm 0% 8mph 13mph 1013mB
3:00 4789m 14°C 14_2 0cm 1% 2mph 3mph 1016mB
6:00 4793m 12°C 12_4 0cm 1% 4mph 5mph 1016mB
9:00 4833m 10°C 10_4 0cm 66% 4mph 5mph 1016mB
12:00 4788m 12°C 12_4 0cm 36% 4mph 4mph 1017mB
15:00 4752m 14°C 14_4 0cm 2% 4mph 7mph 1016mB
18:00 4694m 23°C 23_10 0cm 4% 10mph 18mph 1013mB
21:00 4759m 23°C 23_15 0cm 0% 15mph 23mph 1011mB
0:00 4771m 23°C 23_13 0cm 0% 13mph 22mph 1010mB
3:00 4813m 14°C 14_5 0cm 0% 5mph 7mph 1012mB
6:00 4719m 11°C 11_4 0cm 0% 4mph 5mph 1014mB
9:00 4648m 10°C 10_4 0cm 0% 4mph 5mph 1014mB
12:00 4649m 12°C 12_4 0cm 0% 4mph 5mph 1014mB
15:00 4608m 16°C 16_5 0cm 0% 5mph 7mph 1012mB
18:00 4549m 23°C 23_13 0cm 0% 13mph 24mph 1010mB
21:00 4608m 23°C 23_17 0cm 0% 17mph 27mph 1008mB
0:00 4598m 22°C 22_14 0cm 0% 14mph 24mph 1008mB
3:00 4683m 11°C 11_3 0cm 0% 3mph 4mph 1012mB
6:00 4643m 9°C 9_4 0cm 0% 4mph 5mph 1014mB
9:00 4613m 7°C 7_4 0cm 0% 4mph 5mph 1015mB
12:00 4542m 9°C 9_4 0cm 0% 4mph 5mph 1016mB
15:00 4492m 14°C 14_4 0cm 0% 4mph 6mph 1015mB
18:00 4426m 22°C 22_9 0cm 0% 9mph 17mph 1013mB
21:00 4485m 22°C 22_14 0cm 0% 14mph 24mph 1010mB
0:00 4597m 22°C 22_11 0cm 0% 11mph 22mph 1010mB
3:00 4657m 14°C 14_3 0cm 0% 3mph 3mph 1012mB
6:00 4618m 13°C 13_6 0cm 0% 6mph 7mph 1013mB
9:00 4598m 12°C 12_6 0cm 1% 6mph 7mph 1013mB
12:00 4598m 13°C 13_6 0cm 1% 6mph 7mph 1014mB
15:00 4506m 17°C 17_6 0cm 1% 6mph 15mph 1014mB
18:00 4463m 23°C 23_12 0cm 42% 12mph 21mph 1013mB
21:00 4554m 23°C 23_15 0cm 60% 15mph 25mph 1012mB
0:00 4595m 23°C 23_12 0cm 30% 12mph 21mph 1011mB
3:00 4618m 15°C 15_5 0cm 0% 5mph 8mph 1014mB
6:00 4588m 12°C 12_5 0cm 26% 5mph 6mph 1015mB
9:00 4588m 12°C 12_5 0cm 89% 5mph 6mph 1015mB
12:00 4531m 12°C 12_5 0cm 92% 5mph 6mph 1015mB
15:00 4492m 17°C 17_5 0cm 29% 5mph 11mph 1013mB
18:00 4425m 23°C 23_11 0cm 16% 11mph 21mph 1011mB
21:00 4529m 23°C 23_15 0cm 1% 15mph 27mph 1008mB
0:00 4569m 23°C 23_14 0cm 2% 14mph 24mph 1007mB
3:00 4561m 13°C 13_2 0cm 12% 2mph 3mph 1009mB
6:00 4508m 13°C 13_5 0cm 11% 5mph 6mph 1010mB
Afternoon 0mm 0 4163m 21°C 21_13 0cm 3% 13mph 27mph 1009mB
Morning 0mm 0 3950m 7°C 7_3 0cm 1% 3mph 5mph 1018mB
Afternoon 0mm 0 3811m 17°C 17_6 0cm 0% 6mph 6mph 1017mB
Morning 0mm 0 5117m 8°C 8_4 0cm 0% 4mph 5mph 1018mB
Afternoon 0mm 0 4984m 20°C 20_7 0cm 0% 7mph 9mph 1014mB
Morning 0mm 0 4765m 10°C 10_6 0cm 1% 6mph 7mph 1016mB
Afternoon 0.854167mm 0 4715m 24°C 24_4 0cm 29% 4mph 5mph 1016mB
Morning 0.09375mm 0 4846m 12°C 12_6 0cm 8% 6mph 7mph 1019mB
Afternoon 0.973958mm 0 4849m 27°C 27_6 0cm 5% 6mph 8mph 1016mB
Morning 0mm 0 4872m 15°C 15_4 0cm 24% 4mph 5mph 1018mB
Afternoon 0.401042mm 0 4812m 29°C 29_3 0cm 54% 3mph 5mph 1016mB
Morning 0.578125mm 2.1875 4870m 13°C 13_6 0cm 40% 6mph 7mph 1017mB

16 day outlook at a glance

Forecast issued: 18/08/2018 18:53:36

Chat

Your comments and questions. In a resort? Let us know what it's like!


Characters left 250

For terms and conditions see Readers Comments on the Cookie and privacy policy page.